Location: Newark
(16.3678°N, 77.8722°E)
Time: 11:43:47
(UTC+00:00)

S-56A Canister/Altair - Visible Passes

Search period start: 11 December 2019 00:00
Search period end: 21 December 2019 00:00
Orbit: 633 x 2499 km, 38.9° (Epoch: 10 December)

Date Brightness Start Highest point End Pass type
(mag) Time Alt. Az. Time Alt. Az. Time Alt. Az.
11 Dec 10.9 14:07:19 10° W 14:11:51 15° SW 14:15:39 10° SSW visible
12 Dec 10.8 13:32:26 10° W 13:39:12 20° SW 13:44:26 10° S visible
13 Dec 11.1 00:13:07 10° S 00:20:41 29° SE 00:30:47 10° ENE visible
13 Dec 10.8 12:57:56 10° WNW 13:06:29 27° SW 13:12:47 10° S visible
13 Dec 11.1 23:41:21 10° S 23:47:49 23° SE 23:56:10 10° E visible
14 Dec 11.1 23:09:56 10° SSE 23:15:00 17° SE 23:21:14 10° E visible
15 Dec 11.3 22:39:22 10° SE 22:42:15 12° SE 22:45:30 10° ESE visible
16 Dec 9.7 00:37:06 10° SW 00:45:41 67° SE 00:58:32 10° ENE visible
17 Dec 9.8 00:04:45 10° SSW 00:12:41 57° SE 00:24:34 10° ENE visible
17 Dec 11.7 12:55:57 10° WSW 12:58:27 11° SW 13:00:46 10° SW visible
17 Dec 9.9 23:32:31 10° SSW 23:39:46 47° SE 23:50:33 10° ENE visible
18 Dec 10.0 23:00:25 10° SSW 23:06:59 38° SE 23:16:29 10° ENE visible
19 Dec 10.2 22:28:56 12° S 22:34:17 29° SE 22:42:22 10° ENE visible
20 Dec 9.1 00:30:24 10° WSW 00:38:29 69° NNW 00:50:52 10° NE visible
20 Dec 10.2 21:59:32 20° SSE 22:01:39 22° SE 22:08:07 10° E visible
